{"data":{"norad_id":65740,"intl_designator":"2025-216G","name":"STARLINK-35130","alt_names":[],"object_type":"PAYLOAD","status":"ACTIVE","operator":null,"country":"US","launch_date":"2025-09-25","launch_site_code":"AFETR","launch_vehicle":null,"mission":null,"orbit_class":"UNKNOWN","rcs_meters":null,"size_class":null,"mass_kg":null,"dimensions":null,"purposes":["comms"],"wikipedia_slug":null,"has_3d_model":false,"image_url":null,"decayed_at":null,"tle_current":{"epoch":"2026-09-19T22:47:06.806112Z","epoch_age_seconds":156107,"freshness":"FRESH","line1":"1 65740U 25216G   26262.94938433  .00009627  00000+0  29567-3 0  9994","line2":"2 65740  53.1589 148.5887 0001340  92.0276 268.0880 15.34400949 56361","mean_motion":15.34400949,"eccentricity":0.000134,"inclination_deg":53.1589,"raan_deg":148.5887,"arg_perigee_deg":92.0276,"mean_anomaly_deg":268.088,"bstar":0.00029567,"rev_number":5636,"period_min":93.847700038147,"perigee_km":461.78374736634,"apogee_km":463.61709179479,"semimajor_km":6840.8374195806,"source":"CELESTRAK","updated_at":"2026-09-21T09:00:35.692433Z"}}}